Time,TemperatureF,DewpointF,PressureIn,WindDirection,WindDirectionDegrees,WindSpeedMPH,WindSpeedGustMPH,Humidity,HourlyPrecipIn,Conditions,Clouds,dailyrainin,SoftwareType,DateUTC
2013-04-24 00:01:00,70.0,63.5,30.08,NNE,19,16.1,16.1,80,0.00,CLR,,0.00,WeatherDisplay:10.37,2013-04-24 04:01:00,
2013-04-24 00:02:00,70.0,63.5,30.08,NNE,12,11.5,11.5,80,0.00,CLR,,0.00,WeatherDisplay:10.37,2013-04-24 04:02:00,
2013-04-24 00:03:00,69.9,63.4,30.08,NE,43,12.7,12.7,80,0.00,CLR,,0.00,WeatherDisplay:10.37,2013-04-24 04:03:00,
2013-04-24 00:04:00,69.9,63.4,30.08,NE,43,9.2,9.2,80,0.00,CLR,,0.00,WeatherDisplay:10.37,2013-04-24 04:04:00,
2013-04-24 00:10:00,69.9,63.4,30.08,NE,53,9.2,9.2,80,0.00,CLR,,0.00,WeatherDisplay:10.37,2013-04-24 04:10:00,
2013-04-24 00:15:00,69.8,63.3,30.08,NE,44,6.9,6.9,80,0.00,CLR,,0.00,WeatherDisplay:10.37,2013-04-24 04:15:00,
2013-04-24 00:20:00,69.8,63.3,30.08,NE,36,9.2,9.2,80,0.00,CLR,,0.00,WeatherDisplay:10.37,2013-04-24 04:20:00,
2013-04-24 00:25:00,69.6,63.2,30.08,NNE,29,11.5,11.5,80,0.00,CLR,,0.00,WeatherDisplay:10.37,2013-04-24 04:25:00,
2013-04-24 00:31:00,69.5,63.4,30.08,NNW,338,11.5,11.5,81,0.00,CLR,,0.00,WeatherDisplay:10.37,2013-04-24 04:31:00,
2013-04-24 00:36:00,69.4,63.3,30.08,NNE,23,13.8,13.8,81,0.00,CLR,,0.00,WeatherDisplay:10.37,2013-04-24 04:36:00,
2013-04-24 00:41:00,69.3,63.2,30.08,North,8,11.5,11.5,81,0.00,CLR,,0.00,WeatherDisplay:10.37,2013-04-24 04:41:00,
2013-04-24 00:47:00,69.2,63.1,30.08,NE,39,12.0,12.0,81,0.00,CLR,,0.00,WeatherDisplay:10.37,2013-04-24 04:47:00,
2013-04-24 00:52:00,69.2,63.1,30.08,North,5,6.9,6.9,81,0.00,CLR,,0.00,WeatherDisplay:10.37,2013-04-24 04:52:00,
2013-04-24 00:57:00,69.1,63.0,30.08,NNE,33,11.5,11.5,81,0.00,CLR,,0.00,WeatherDisplay:10.37,2013-04-24 04:57:00,
2013-04-24 01:02:00,69.0,63.3,30.08,North,1,9.2,9.2,82,0.00,CLR,,0.00,WeatherDisplay:10.37,2013-04-24 05:02:00,
2013-04-24 01:08:00,68.9,63.2,30.08,North,4,11.5,11.5,82,0.00,CLR,,0.00,WeatherDisplay:10.37,2013-04-24 05:08:00,
2013-04-24 01:13:00,68.8,63.1,30.08,North,5,9.2,9.2,82,0.00,CLR,,0.00,WeatherDisplay:10.37,2013-04-24 05:13:00,
2013-04-24 01:18:00,68.6,62.9,30.07,NE,36,6.9,6.9,82,0.00,CLR,,0.00,WeatherDisplay:10.37,2013-04-24 05:18:00,
2013-04-24 01:23:00,68.5,62.8,30.07,NNW,328,6.9,6.9,82,0.00,CLR,,0.00,WeatherDisplay:10.37,2013-04-24 05:23:00,
2013-04-24 01:28:00,68.4,63.0,30.07,NNE,26,10.4,10.4,83,0.00,CLR,,0.00,WeatherDisplay:10.37,2013-04-24 05:28:00,
2013-04-24 01:33:00,68.2,62.8,30.07,NNE,29,6.9,6.9,83,0.00,CLR,,0.00,WeatherDisplay:10.37,2013-04-24 05:33:00,
2013-04-24 01:38:00,68.1,62.7,30.07,North,356,8.1,8.1,83,0.00,CLR,,0.00,WeatherDisplay:10.37,2013-04-24 05:38:00,
2013-04-24 01:43:00,68.0,62.6,30.07,NE,39,7.0,7.0,83,0.00,CLR,,0.00,WeatherDisplay:10.37,2013-04-24 05:43:00,
2013-04-24 01:49:00,67.9,62.5,30.07,NNE,18,8.1,8.1,83,0.00,CLR,,0.00,WeatherDisplay:10.37,2013-04-24 05:49:00,
2013-04-24 01:54:00,67.9,62.5,30.07,NNW,346,6.9,6.9,83,0.00,CLR,,0.00,WeatherDisplay:10.37,2013-04-24 05:54:00,
2013-04-24 01:59:00,67.8,62.4,30.07,NNE,18,5.8,5.8,83,0.00,CLR,,0.00,WeatherDisplay:10.37,2013-04-24 05:59:00,
2013-04-24 02:04:00,67.7,62.7,30.06,NNW,342,9.2,9.2,84,0.00,CLR,,0.00,WeatherDisplay:10.37,2013-04-24 06:04:00,
2013-04-24 02:09:00,67.7,62.7,30.07,NNW,336,8.1,8.1,84,0.00,CLR,,0.00,WeatherDisplay:10.37,2013-04-24 06:09:00,
2013-04-24 02:14:00,67.7,62.7,30.06,NNE,22,8.1,8.1,84,0.00,CLR,,0.00,WeatherDisplay:10.37,2013-04-24 06:14:00,
2013-04-24 02:19:00,67.5,62.5,30.06,NE,36,6.9,6.9,84,0.00,CLR,,0.00,WeatherDisplay:10.37,2013-04-24 06:19:00,
2013-04-24 02:24:00,67.3,62.3,30.06,NE,44,5.8,5.8,84,0.00,CLR,,0.00,WeatherDisplay:10.37,2013-04-24 06:24:00,
2013-04-24 02:29:00,67.2,62.5,30.06,NNE,19,6.0,6.0,85,0.00,CLR,,0.00,WeatherDisplay:10.37,2013-04-24 06:29:00,
2013-04-24 02:34:00,67.1,62.4,30.06,NE,39,8.1,8.1,85,0.00,CLR,,0.00,WeatherDisplay:10.37,2013-04-24 06:34:00,
2013-04-24 02:39:00,67.0,62.3,30.05,NNE,19,8.1,8.1,85,0.00,CLR,,0.00,WeatherDisplay:10.37,2013-04-24 06:39:00,
2013-04-24 02:45:00,66.8,62.1,30.05,NNE,33,8.1,8.1,85,0.00,CLR,,0.00,WeatherDisplay:10.37,2013-04-24 06:45:00,
2013-04-24 02:50:00,66.8,62.1,30.05,NE,35,9.2,9.2,85,0.00,CLR,,0.00,WeatherDisplay:10.37,2013-04-24 06:50:00,
2013-04-24 02:55:00,66.7,62.0,30.05,North,5,3.5,3.5,85,0.00,CLR,,0.00,WeatherDisplay:10.37,2013-04-24 06:55:00,
2013-04-24 03:00:00,66.7,62.0,30.05,NE,49,9.2,9.2,85,0.00,CLR,,0.00,WeatherDisplay:10.37,2013-04-24 07:00:00,
2013-04-24 03:05:00,66.7,62.0,30.05,NNE,21,6.9,6.9,85,0.00,CLR,,0.00,WeatherDisplay:10.37,2013-04-24 07:05:00,
2013-04-24 03:11:00,66.6,61.9,30.05,NW,325,6.9,6.9,85,0.00,CLR,,0.00,WeatherDisplay:10.37,2013-04-24 07:11:00,
2013-04-24 03:16:00,66.6,61.9,30.05,NE,41,9.2,9.2,85,0.00,CLR,,0.00,WeatherDisplay:10.37,2013-04-24 07:16:00,
2013-04-24 03:21:00,66.5,62.2,30.05,NE,43,10.4,10.4,86,0.00,CLR,,0.00,WeatherDisplay:10.37,2013-04-24 07:21:00,
2013-04-24 03:27:00,66.4,62.1,30.05,NNE,26,5.8,5.8,86,0.00,CLR,,0.00,WeatherDisplay:10.37,2013-04-24 07:27:00,
2013-04-24 03:32:00,66.2,61.9,30.05,North,360,5.8,5.8,86,0.00,CLR,,0.00,WeatherDisplay:10.37,2013-04-24 07:32:00,
2013-04-24 03:37:00,66.1,61.8,30.05,North,11,5.8,5.8,86,0.00,CLR,,0.00,WeatherDisplay:10.37,2013-04-24 07:37:00,
2013-04-24 03:42:00,66.0,61.7,30.05,NE,55,6.9,6.9,86,0.00,CLR,,0.00,WeatherDisplay:10.37,2013-04-24 07:42:00,
2013-04-24 03:47:00,66.0,61.7,30.05,NE,49,8.1,8.1,86,0.00,CLR,,0.00,WeatherDisplay:10.37,2013-04-24 07:47:00,
2013-04-24 03:52:00,66.0,61.7,30.05,NNE,23,5.0,5.0,86,0.00,CLR,,0.00,WeatherDisplay:10.37,2013-04-24 07:52:00,
2013-04-24 03:58:00,65.9,61.9,30.06,North,8,3.5,3.5,87,0.00,CLR,,0.00,WeatherDisplay:10.37,2013-04-24 07:58:00,
2013-04-24 04:03:00,65.9,61.9,30.06,NNE,22,8.1,8.1,87,0.00,CLR,,0.00,WeatherDisplay:10.37,2013-04-24 08:03:00,
2013-04-24 04:08:00,65.8,61.8,30.06,NE,54,5.0,5.0,87,0.00,CLR,,0.00,WeatherDisplay:10.37,2013-04-24 08:08:00,
2013-04-24 04:13:00,65.7,61.7,30.06,NNE,19,6.9,6.9,87,0.00,CLR,,0.00,WeatherDisplay:10.37,2013-04-24 08:13:00,
2013-04-24 04:18:00,65.6,61.6,30.06,NNE,30,6.0,6.0,87,0.00,CLR,,0.00,WeatherDisplay:10.37,2013-04-24 08:18:00,
2013-04-24 04:23:00,65.6,61.6,30.06,NNW,346,10.4,10.4,87,0.00,CLR,,0.00,WeatherDisplay:10.37,2013-04-24 08:23:00,
2013-04-24 04:29:00,65.5,61.5,30.06,NNE,23,6.9,6.9,87,0.00,CLR,,0.00,WeatherDisplay:10.37,2013-04-24 08:29:00,
2013-04-24 04:34:00,65.4,61.4,30.06,NNE,20,4.0,4.0,87,0.00,CLR,,0.00,WeatherDisplay:10.37,2013-04-24 08:34:00,
2013-04-24 04:39:00,65.2,61.6,30.06,NNE,20,5.8,5.8,88,0.00,CLR,,0.00,WeatherDisplay:10.37,2013-04-24 08:39:00,
2013-04-24 04:44:00,65.1,61.5,30.06,NE,53,7.0,7.0,88,0.00,CLR,,0.00,WeatherDisplay:10.37,2013-04-24 08:44:00,
2013-04-24 04:49:00,65.0,61.4,30.06,NNE,26,5.0,5.0,88,0.00,CLR,,0.00,WeatherDisplay:10.37,2013-04-24 08:49:00,
2013-04-24 04:54:00,64.9,61.3,30.06,NE,39,4.6,4.6,88,0.00,CLR,,0.00,WeatherDisplay:10.37,2013-04-24 08:54:00,
2013-04-24 04:59:00,64.9,61.3,30.06,NNE,32,5.8,5.8,88,0.00,CLR,,0.00,WeatherDisplay:10.37,2013-04-24 08:59:00,
2013-04-24 05:04:00,64.9,61.3,30.06,North,8,6.9,6.9,88,0.00,CLR,,0.00,WeatherDisplay:10.37,2013-04-24 09:04:00,
2013-04-24 05:09:00,64.9,61.3,30.06,NNE,16,3.5,3.5,88,0.00,CLR,,0.00,WeatherDisplay:10.37,2013-04-24 09:09:00,
2013-04-24 05:15:00,64.9,61.3,30.06,NNE,23,6.9,6.9,88,0.00,CLR,,0.00,WeatherDisplay:10.37,2013-04-24 09:15:00,
2013-04-24 05:20:00,64.9,61.3,30.06,NE,34,4.0,4.0,88,0.00,CLR,,0.00,WeatherDisplay:10.37,2013-04-24 09:20:00,
2013-04-24 05:25:00,64.8,61.2,30.07,North,3,6.9,6.9,88,0.00,CLR,,0.00,WeatherDisplay:10.37,2013-04-24 09:25:00,
2013-04-24 05:30:00,64.8,61.2,30.07,ENE,58,4.6,4.6,88,0.00,CLR,,0.00,WeatherDisplay:10.37,2013-04-24 09:30:00,
2013-04-24 05:35:00,64.8,61.2,30.07,NNE,27,5.8,5.8,88,0.00,CLR,,0.00,WeatherDisplay:10.37,2013-04-24 09:35:00,
2013-04-24 05:41:00,64.7,61.1,30.07,North,8,5.8,5.8,88,0.00,CLR,,0.00,WeatherDisplay:10.37,2013-04-24 09:41:00,
2013-04-24 05:46:00,64.7,61.1,30.07,NE,56,4.6,4.6,88,0.00,CLR,,0.00,WeatherDisplay:10.37,2013-04-24 09:46:00,
2013-04-24 05:51:00,64.7,61.1,30.07,NNE,27,5.8,5.8,88,0.00,CLR,,0.00,WeatherDisplay:10.37,2013-04-24 09:51:00,
2013-04-24 05:56:00,64.6,61.0,30.07,NNW,335,4.6,4.6,88,0.00,CLR,,0.00,WeatherDisplay:10.37,2013-04-24 09:56:00,
2013-04-24 06:01:00,64.6,61.0,30.07,North,352,5.8,5.8,88,0.00,CLR,,0.00,WeatherDisplay:10.37,2013-04-24 10:01:00,
2013-04-24 06:06:00,64.6,61.0,30.07,NNE,21,5.8,5.8,88,0.00,CLR,,0.00,WeatherDisplay:10.37,2013-04-24 10:06:00,
2013-04-24 06:11:00,64.5,60.9,30.07,NE,35,6.9,6.9,88,0.00,CLR,,0.00,WeatherDisplay:10.37,2013-04-24 10:11:00,
2013-04-24 06:16:00,64.5,60.9,30.07,NE,40,6.0,6.0,88,0.00,CLR,,0.00,WeatherDisplay:10.37,2013-04-24 10:16:00,
2013-04-24 06:21:00,64.6,61.0,30.07,North,11,5.8,5.8,88,0.00,CLR,,0.00,WeatherDisplay:10.37,2013-04-24 10:21:00,
2013-04-24 06:26:00,64.6,61.0,30.08,NNE,27,5.8,5.8,88,0.00,CLR,,0.00,WeatherDisplay:10.37,2013-04-24 10:26:00,
2013-04-24 06:32:00,64.5,60.9,30.08,NNE,18,6.9,6.9,88,0.00,CLR,,0.00,WeatherDisplay:10.37,2013-04-24 10:32:00,
2013-04-24 06:37:00,64.5,60.9,30.08,North,11,4.6,4.6,88,0.00,CLR,,0.00,WeatherDisplay:10.37,2013-04-24 10:37:00,
2013-04-24 06:42:00,64.3,60.7,30.08,North,8,3.5,3.5,88,0.00,CLR,,0.00,WeatherDisplay:10.37,2013-04-24 10:42:00,
2013-04-24 06:47:00,64.3,60.7,30.08,NNE,29,4.6,4.6,88,0.00,CLR,,0.00,WeatherDisplay:10.37,2013-04-24 10:47:00,
2013-04-24 06:52:00,64.3,60.7,30.09,NNE,18,3.5,3.5,88,0.00,CLR,,0.00,WeatherDisplay:10.37,2013-04-24 10:52:00,
2013-04-24 06:57:00,64.2,60.9,30.09,NNE,20,4.0,4.0,89,0.00,CLR,,0.00,WeatherDisplay:10.37,2013-04-24 10:57:00,
2013-04-24 07:02:00,64.2,60.9,30.09,North,8,2.3,2.3,89,0.00,CLR,,0.00,WeatherDisplay:10.37,2013-04-24 11:02:00,
2013-04-24 07:07:00,64.2,60.9,30.09,NNE,25,4.6,4.6,89,0.00,CLR,,0.00,WeatherDisplay:10.37,2013-04-24 11:07:00,
2013-04-24 07:12:00,64.3,61.3,30.09,NNE,20,5.8,5.8,90,0.00,CLR,,0.00,WeatherDisplay:10.37,2013-04-24 11:12:00,
2013-04-24 07:17:00,64.5,61.5,30.09,NNE,12,5.8,5.8,90,0.00,CLR,,0.00,WeatherDisplay:10.37,2013-04-24 11:17:00,
2013-04-24 07:22:00,64.8,61.5,30.09,NE,34,3.5,3.5,89,0.00,CLR,,0.00,WeatherDisplay:10.37,2013-04-24 11:22:00,
2013-04-24 07:27:00,65.1,61.8,30.09,NNE,15,5.8,5.8,89,0.00,CLR,,0.00,WeatherDisplay:10.37,2013-04-24 11:27:00,
2013-04-24 07:33:00,65.4,61.8,30.10,North,11,6.9,6.9,88,0.00,CLR,,0.00,WeatherDisplay:10.37,2013-04-24 11:33:00,
2013-04-24 07:38:00,65.6,61.9,30.10,NE,34,5.8,5.8,88,0.00,CLR,,0.00,WeatherDisplay:10.37,2013-04-24 11:38:00,
2013-04-24 07:43:00,66.0,62.3,30.10,NE,41,5.8,5.8,88,0.00,CLR,,0.00,WeatherDisplay:10.37,2013-04-24 11:43:00,
2013-04-24 07:48:00,66.4,62.4,30.10,NNE,16,3.5,3.5,87,0.00,CLR,,0.00,WeatherDisplay:10.37,2013-04-24 11:48:00,
2013-04-24 07:53:00,66.6,62.6,30.10,NNE,25,6.9,6.9,87,0.00,CLR,,0.00,WeatherDisplay:10.37,2013-04-24 11:53:00,
2013-04-24 07:59:00,66.9,62.6,30.10,NNE,18,5.8,5.8,86,0.00,CLR,,0.00,WeatherDisplay:10.37,2013-04-24 11:59:00,
2013-04-24 08:04:00,67.2,62.5,30.10,NNE,25,5.8,5.8,85,0.00,CLR,,0.00,WeatherDisplay:10.37,2013-04-24 12:04:00,
2013-04-24 08:09:00,67.6,62.9,30.10,NNE,13,5.8,5.8,85,0.00,CLR,,0.00,WeatherDisplay:10.37,2013-04-24 12:09:00,
2013-04-24 08:14:00,68.0,63.0,30.10,NNE,19,5.8,5.8,84,0.00,CLR,,0.00,WeatherDisplay:10.37,2013-04-24 12:14:00,
2013-04-24 08:19:00,68.4,63.0,30.11,North,9,3.5,3.5,83,0.00,CLR,,0.00,WeatherDisplay:10.37,2013-04-24 12:19:00,
2013-04-24 08:24:00,68.9,63.2,30.11,NNE,19,6.9,6.9,82,0.00,CLR,,0.00,WeatherDisplay:10.37,2013-04-24 12:24:00,
2013-04-24 08:29:00,69.4,63.7,30.11,NNE,15,3.5,3.5,82,0.00,CLR,,0.00,WeatherDisplay:10.37,2013-04-24 12:29:00,
2013-04-24 08:34:00,69.8,63.3,30.11,North,358,5.8,5.8,80,0.00,CLR,,0.00,WeatherDisplay:10.37,2013-04-24 12:34:00,
2013-04-24 08:39:00,70.2,63.4,30.11,NNE,20,4.6,4.6,79,0.00,CLR,,0.00,WeatherDisplay:10.37,2013-04-24 12:39:00,
2013-04-24 08:44:00,70.7,63.5,30.12,ENE,57,8.1,8.1,78,0.00,CLR,,0.00,WeatherDisplay:10.37,2013-04-24 12:44:00,
2013-04-24 08:49:00,70.8,64.0,30.12,NNE,20,5.8,5.8,79,0.00,CLR,,0.00,WeatherDisplay:10.37,2013-04-24 12:49:00,
2013-04-24 08:54:00,71.3,64.1,30.12,NNE,22,4.6,4.6,78,0.00,CLR,,0.00,WeatherDisplay:10.37,2013-04-24 12:54:00,
2013-04-24 09:00:00,71.9,63.9,30.12,NE,55,8.1,8.1,76,0.00,CLR,,0.00,WeatherDisplay:10.37,2013-04-24 13:00:00,
2013-04-24 09:05:00,72.3,64.3,30.12,North,6,4.6,4.6,76,0.00,CLR,,0.00,WeatherDisplay:10.37,2013-04-24 13:05:00,
2013-04-24 09:10:00,72.7,64.3,30.12,NNE,12,5.8,5.8,75,0.00,CLR,,0.00,WeatherDisplay:10.37,2013-04-24 13:10:00,
2013-04-24 09:15:00,72.9,64.1,30.12,NE,39,6.9,6.9,74,0.00,CLR,,0.00,WeatherDisplay:10.37,2013-04-24 13:15:00,
2013-04-24 09:21:00,73.2,64.4,30.12,NNW,334,4.6,4.6,74,0.00,CLR,,0.00,WeatherDisplay:10.37,2013-04-24 13:21:00,
2013-04-24 09:26:00,73.6,64.8,30.12,ENE,67,5.8,5.8,74,0.00,CLR,,0.00,WeatherDisplay:10.37,2013-04-24 13:26:00,
2013-04-24 09:31:00,74.5,65.3,30.12,North,352,4.6,4.6,73,0.00,CLR,,0.00,WeatherDisplay:10.37,2013-04-24 13:31:00,
2013-04-24 09:36:00,75.1,64.6,30.12,NNW,343,8.1,8.1,70,0.00,CLR,,0.00,WeatherDisplay:10.37,2013-04-24 13:36:00,
2013-04-24 09:42:00,75.3,65.2,30.13,NE,43,6.9,6.9,71,0.00,CLR,,0.00,WeatherDisplay:10.37,2013-04-24 13:42:00,
2013-04-24 09:47:00,75.7,64.8,30.13,NNE,32,8.1,8.1,69,0.00,CLR,,0.00,WeatherDisplay:10.37,2013-04-24 13:47:00,
2013-04-24 09:52:00,75.9,65.0,30.13,NNE,33,8.1,8.1,69,0.00,CLR,,0.00,WeatherDisplay:10.37,2013-04-24 13:52:00,
2013-04-24 09:57:00,76.0,65.1,30.13,NE,53,9.2,9.2,69,0.00,CLR,,0.00,WeatherDisplay:10.37,2013-04-24 13:57:00,
2013-04-24 10:02:00,76.4,65.5,30.13,NE,51,5.0,5.0,69,0.00,CLR,,0.00,WeatherDisplay:10.37,2013-04-24 14:02:00,
2013-04-24 10:07:00,77.2,65.8,30.13,NE,46,9.2,9.2,68,0.00,CLR,,0.00,WeatherDisplay:10.37,2013-04-24 14:07:00,
2013-04-24 10:12:00,77.3,65.5,30.13,NE,49,10.4,10.4,67,0.00,CLR,,0.00,WeatherDisplay:10.37,2013-04-24 14:12:00,
2013-04-24 10:17:00,77.3,65.1,30.13,NE,41,10.4,10.4,66,0.00,CLR,,0.00,WeatherDisplay:10.37,2013-04-24 14:17:00,
2013-04-24 10:23:00,77.5,65.7,30.13,ENE,68,8.1,8.1,67,0.00,CLR,,0.00,WeatherDisplay:10.37,2013-04-24 14:23:00,
2013-04-24 10:28:00,77.6,65.3,30.13,ESE,110,9.2,9.2,66,0.00,CLR,,0.00,WeatherDisplay:10.37,2013-04-24 14:28:00,
2013-04-24 10:33:00,77.9,65.6,30.13,NE,53,10.4,10.4,66,0.00,CLR,,0.00,WeatherDisplay:10.37,2013-04-24 14:33:00,
2013-04-24 10:38:00,77.8,65.1,30.13,ENE,60,10.4,10.4,65,0.00,CLR,,0.00,WeatherDisplay:10.37,2013-04-24 14:38:00,
2013-04-24 10:43:00,78.1,64.9,30.13,East,86,10.4,10.4,64,0.00,CLR,,0.00,WeatherDisplay:10.37,2013-04-24 14:43:00,
2013-04-24 10:48:00,78.1,65.4,30.13,NE,44,11.5,11.5,65,0.00,CLR,,0.00,WeatherDisplay:10.37,2013-04-24 14:48:00,
2013-04-24 10:54:00,78.5,66.2,30.13,NE,44,8.1,8.1,66,0.00,CLR,,0.00,WeatherDisplay:10.37,2013-04-24 14:54:00,
2013-04-24 10:59:00,78.9,65.7,30.13,East,91,9.2,9.2,64,0.00,CLR,,0.00,WeatherDisplay:10.37,2013-04-24 14:59:00,
2013-04-24 11:04:00,78.5,65.3,30.13,NE,47,9.2,9.2,64,0.00,CLR,,0.00,WeatherDisplay:10.37,2013-04-24 15:04:00,
2013-04-24 11:09:00,78.8,65.6,30.14,ENE,71,8.1,8.1,64,0.00,CLR,,0.00,WeatherDisplay:10.37,2013-04-24 15:09:00,
2013-04-24 11:14:00,78.9,66.1,30.13,NE,50,10.4,10.4,65,0.00,CLR,,0.00,WeatherDisplay:10.37,2013-04-24 15:14:00,
2013-04-24 11:19:00,79.7,66.4,30.13,NE,53,8.1,8.1,64,0.00,CLR,,0.00,WeatherDisplay:10.37,2013-04-24 15:19:00,
2013-04-24 11:25:00,79.7,65.5,30.13,ENE,68,10.4,10.4,62,0.00,CLR,,0.00,WeatherDisplay:10.37,2013-04-24 15:25:00,
2013-04-24 11:30:00,79.7,65.5,30.13,East,96,5.8,5.8,62,0.00,CLR,,0.00,WeatherDisplay:10.37,2013-04-24 15:30:00,
2013-04-24 11:35:00,79.7,65.1,30.13,NE,39,5.0,5.0,61,0.00,CLR,,0.00,WeatherDisplay:10.37,2013-04-24 15:35:00,
2013-04-24 11:40:00,80.2,65.5,30.13,East,84,6.9,6.9,61,0.00,CLR,,0.00,WeatherDisplay:10.37,2013-04-24 15:40:00,
2013-04-24 11:45:00,80.4,65.7,30.12,ENE,58,6.9,6.9,61,0.00,CLR,,0.00,WeatherDisplay:10.37,2013-04-24 15:45:00,
2013-04-24 11:50:00,81.0,66.8,30.12,ESE,122,8.1,8.1,62,0.00,CLR,,0.00,WeatherDisplay:10.37,2013-04-24 15:50:00,
2013-04-24 11:55:00,80.9,66.2,30.12,East,86,4.6,4.6,61,0.00,CLR,,0.00,WeatherDisplay:10.37,2013-04-24 15:55:00,
2013-04-24 12:00:00,80.7,65.5,30.12,ENE,78,3.5,3.5,60,0.00,CLR,,0.00,WeatherDisplay:10.37,2013-04-24 16:00:00,
2013-04-24 12:05:00,81.3,66.1,30.12,SSE,148,9.2,9.2,60,0.00,CLR,,0.00,WeatherDisplay:10.37,2013-04-24 16:05:00,
2013-04-24 12:11:00,81.5,65.8,30.11,East,97,6.9,6.9,59,0.00,CLR,,0.00,WeatherDisplay:10.37,2013-04-24 16:11:00,
2013-04-24 12:16:00,82.2,66.9,30.11,East,83,8.1,8.1,60,0.00,CLR,,0.00,WeatherDisplay:10.37,2013-04-24 16:16:00,
2013-04-24 12:21:00,81.9,65.7,30.11,SE,134,6.9,6.9,58,0.00,CLR,,0.00,WeatherDisplay:10.37,2013-04-24 16:21:00,
2013-04-24 12:26:00,82.2,66.4,30.11,SSW,193,4.6,4.6,59,0.00,CLR,,0.00,WeatherDisplay:10.37,2013-04-24 16:26:00,
2013-04-24 12:31:00,82.5,66.2,30.11,SE,131,8.1,8.1,58,0.00,CLR,,0.00,WeatherDisplay:10.37,2013-04-24 16:31:00,
2013-04-24 12:36:00,82.8,66.0,30.10,ENE,75,3.5,3.5,57,0.00,CLR,,0.00,WeatherDisplay:10.37,2013-04-24 16:36:00,
2013-04-24 12:41:00,82.5,65.2,30.10,SE,126,11.5,11.5,56,0.00,CLR,,0.00,WeatherDisplay:10.37,2013-04-24 16:41:00,
2013-04-24 12:46:00,83.4,66.6,30.10,South,187,5.8,5.8,57,0.00,CLR,,0.00,WeatherDisplay:10.37,2013-04-24 16:46:00,
2013-04-24 12:51:00,84.1,65.1,30.10,NE,56,3.5,3.5,53,0.00,CLR,,0.00,WeatherDisplay:10.37,2013-04-24 16:51:00,
2013-04-24 12:56:00,84.1,65.7,30.10,East,80,5.8,5.8,54,0.00,CLR,,0.00,WeatherDisplay:10.37,2013-04-24 16:56:00,
2013-04-24 13:02:00,84.1,65.1,30.10,SSE,163,5.8,5.8,53,0.00,CLR,,0.00,WeatherDisplay:10.37,2013-04-24 17:02:00,
2013-04-24 13:07:00,84.7,65.7,30.10,East,79,4.0,4.0,53,0.00,CLR,,0.00,WeatherDisplay:10.37,2013-04-24 17:07:00,
2013-04-24 13:12:00,85.3,65.7,30.09,South,190,5.8,5.8,52,0.00,CLR,,0.00,WeatherDisplay:10.37,2013-04-24 17:12:00,
2013-04-24 13:17:00,85.4,65.8,30.09,SSE,150,5.0,5.0,52,0.00,CLR,,0.00,WeatherDisplay:10.37,2013-04-24 17:17:00,
2013-04-24 13:22:00,84.8,64.7,30.09,East,89,4.6,4.6,51,0.00,CLR,,0.00,WeatherDisplay:10.37,2013-04-24 17:22:00,
2013-04-24 13:27:00,85.4,66.9,30.09,ENE,73,6.9,6.9,54,0.00,CLR,,0.00,WeatherDisplay:10.37,2013-04-24 17:27:00,
2013-04-24 13:32:00,85.0,65.4,30.09,SSW,204,5.8,5.8,52,0.00,CLR,,0.00,WeatherDisplay:10.37,2013-04-24 17:32:00,
2013-04-24 13:37:00,85.4,66.3,30.08,ENE,66,11.5,11.5,53,0.00,CLR,,0.00,WeatherDisplay:10.37,2013-04-24 17:37:00,
2013-04-24 13:42:00,84.8,65.8,30.08,North,1,6.9,6.9,53,0.00,CLR,,0.00,WeatherDisplay:10.37,2013-04-24 17:42:00,
2013-04-24 13:47:00,85.2,66.1,30.08,WSW,250,2.3,2.3,53,0.00,CLR,,0.00,WeatherDisplay:10.37,2013-04-24 17:47:00,
2013-04-24 13:52:00,85.3,66.2,30.08,West,269,2.3,2.3,53,0.00,CLR,,0.00,WeatherDisplay:10.37,2013-04-24 17:52:00,
2013-04-24 13:57:00,86.3,66.0,30.08,NW,308,2.3,2.3,51,0.00,CLR,,0.00,WeatherDisplay:10.37,2013-04-24 17:57:00,
2013-04-24 14:03:00,86.0,64.6,30.08,NNW,346,4.6,4.6,49,0.00,CLR,,0.00,WeatherDisplay:10.37,2013-04-24 18:03:00,
2013-04-24 14:08:00,85.6,64.2,30.08,West,267,3.5,3.5,49,0.00,CLR,,0.00,WeatherDisplay:10.37,2013-04-24 18:08:00,
2013-04-24 14:13:00,85.3,66.8,30.08,South,190,0.0,0.0,54,0.00,CLR,,0.00,WeatherDisplay:10.37,2013-04-24 18:13:00,
2013-04-24 14:18:00,85.6,68.1,30.07,WSW,246,4.6,4.6,56,0.00,CLR,,0.00,WeatherDisplay:10.37,2013-04-24 18:18:00,
2013-04-24 14:23:00,85.7,68.7,30.07,SW,236,3.5,3.5,57,0.00,CLR,,0.00,WeatherDisplay:10.37,2013-04-24 18:23:00,
2013-04-24 14:28:00,86.1,69.6,30.07,South,191,3.5,3.5,58,0.00,CLR,,0.00,WeatherDisplay:10.37,2013-04-24 18:28:00,
2013-04-24 14:33:00,85.8,69.3,30.07,NW,311,3.5,3.5,58,0.00,CLR,,0.00,WeatherDisplay:10.37,2013-04-24 18:33:00,
2013-04-24 14:38:00,85.4,68.9,30.07,SE,142,1.2,1.2,58,0.00,CLR,,0.00,WeatherDisplay:10.37,2013-04-24 18:38:00,
2013-04-24 14:43:00,86.5,70.0,30.07,SE,132,4.0,4.0,58,0.00,CLR,,0.00,WeatherDisplay:10.37,2013-04-24 18:43:00,
2013-04-24 14:49:00,87.8,70.1,30.07,SE,127,6.0,6.0,56,0.00,CLR,,0.00,WeatherDisplay:10.37,2013-04-24 18:49:00,
2013-04-24 14:54:00,87.3,69.2,30.06,SE,139,12.7,12.7,55,0.00,CLR,,0.00,WeatherDisplay:10.37,2013-04-24 18:54:00,
2013-04-24 14:59:00,86.5,69.5,30.06,SE,129,4.6,4.6,57,0.00,CLR,,0.00,WeatherDisplay:10.37,2013-04-24 18:59:00,
2013-04-24 15:04:00,87.1,70.0,30.06,SW,217,4.6,4.6,57,0.00,CLR,,0.00,WeatherDisplay:10.37,2013-04-24 19:04:00,
2013-04-24 15:10:00,87.3,70.2,30.06,SSW,203,3.5,3.5,57,0.00,CLR,,0.00,WeatherDisplay:10.37,2013-04-24 19:10:00,
2013-04-24 15:15:00,87.5,70.4,30.06,SE,139,6.0,6.0,57,0.00,CLR,,0.00,WeatherDisplay:10.37,2013-04-24 19:15:00,
2013-04-24 15:20:00,86.9,70.3,30.06,South,183,5.8,5.8,58,0.00,CLR,,0.00,WeatherDisplay:10.37,2013-04-24 19:20:00,
2013-04-24 15:25:00,87.7,70.6,30.06,SW,226,3.5,3.5,57,0.00,CLR,,0.00,WeatherDisplay:10.37,2013-04-24 19:25:00,
2013-04-24 15:30:00,88.0,70.3,30.06,SW,228,2.3,2.3,56,0.00,CLR,,0.00,WeatherDisplay:10.37,2013-04-24 19:30:00,
2013-04-24 15:35:00,88.6,70.4,30.05,SSE,158,4.6,4.6,55,0.00,CLR,,0.00,WeatherDisplay:10.37,2013-04-24 19:35:00,
2013-04-24 15:40:00,88.1,70.4,30.05,SW,224,6.9,6.9,56,0.00,CLR,,0.00,WeatherDisplay:10.37,2013-04-24 19:40:00,
2013-04-24 15:45:00,87.8,70.1,30.05,North,349,4.6,4.6,56,0.00,CLR,,0.00,WeatherDisplay:10.37,2013-04-24 19:45:00,
2013-04-24 15:50:00,88.1,69.9,30.05,SW,235,4.0,4.0,55,0.00,CLR,,0.00,WeatherDisplay:10.37,2013-04-24 19:50:00,
2013-04-24 15:56:00,88.1,69.9,30.05,WSW,253,2.3,2.3,55,0.00,CLR,,0.00,WeatherDisplay:10.37,2013-04-24 19:56:00,
2013-04-24 16:01:00,87.7,69.0,30.05,SW,222,4.6,4.6,54,0.00,CLR,,0.00,WeatherDisplay:10.37,2013-04-24 20:01:00,
2013-04-24 16:06:00,87.6,70.0,30.05,South,172,3.5,3.5,56,0.00,CLR,,0.00,WeatherDisplay:10.37,2013-04-24 20:06:00,
2013-04-24 16:11:00,88.2,70.0,30.05,South,172,4.6,4.6,55,0.00,CLR,,0.00,WeatherDisplay:10.37,2013-04-24 20:11:00,
2013-04-24 16:16:00,87.9,69.2,30.05,SE,136,5.8,5.8,54,0.00,CLR,,0.00,WeatherDisplay:10.37,2013-04-24 20:16:00,
2013-04-24 16:21:00,88.0,69.8,30.05,SSW,212,4.6,4.6,55,0.00,CLR,,0.00,WeatherDisplay:10.37,2013-04-24 20:21:00,
2013-04-24 16:27:00,86.9,68.3,30.05,NW,314,3.5,3.5,54,0.00,CLR,,0.00,WeatherDisplay:10.37,2013-04-24 20:27:00,
2013-04-24 16:32:00,86.6,69.6,30.05,SW,222,3.5,3.5,57,0.00,CLR,,0.00,WeatherDisplay:10.37,2013-04-24 20:32:00,
2013-04-24 16:37:00,87.5,68.8,30.05,NW,315,3.5,3.5,54,0.00,CLR,,0.00,WeatherDisplay:10.37,2013-04-24 20:37:00,
2013-04-24 16:42:00,86.1,68.6,30.05,WNW,294,5.8,5.8,56,0.00,CLR,,0.00,WeatherDisplay:10.37,2013-04-24 20:42:00,
2013-04-24 16:47:00,85.6,68.6,30.05,SSW,205,4.6,4.6,57,0.00,CLR,,0.00,WeatherDisplay:10.37,2013-04-24 20:47:00,
2013-04-24 16:52:00,86.0,68.5,30.05,WNW,299,3.5,3.5,56,0.00,CLR,,0.00,WeatherDisplay:10.37,2013-04-24 20:52:00,
2013-04-24 16:57:00,85.1,68.2,30.05,SE,124,3.5,3.5,57,0.00,CLR,,0.00,WeatherDisplay:10.37,2013-04-24 20:57:00,
2013-04-24 17:02:00,85.2,68.8,30.05,NNW,338,6.9,6.9,58,0.00,CLR,,0.00,WeatherDisplay:10.37,2013-04-24 21:02:00,
2013-04-24 17:07:00,85.0,68.6,30.05,West,279,3.5,3.5,58,0.00,CLR,,0.00,WeatherDisplay:10.37,2013-04-24 21:07:00,
2013-04-24 17:12:00,85.4,68.4,30.05,SW,235,3.5,3.5,57,0.00,CLR,,0.00,WeatherDisplay:10.37,2013-04-24 21:12:00,
2013-04-24 17:17:00,85.6,69.1,30.05,ENE,61,3.5,3.5,58,0.00,CLR,,0.00,WeatherDisplay:10.37,2013-04-24 21:17:00,
2013-04-24 17:22:00,85.2,68.2,30.05,NW,313,4.6,4.6,57,0.00,CLR,,0.00,WeatherDisplay:10.37,2013-04-24 21:22:00,
2013-04-24 17:28:00,85.0,68.6,30.05,SW,228,3.5,3.5,58,0.00,CLR,,0.00,WeatherDisplay:10.37,2013-04-24 21:28:00,
2013-04-24 17:33:00,85.1,68.7,30.05,WSW,256,3.5,3.5,58,0.00,CLR,,0.00,WeatherDisplay:10.37,2013-04-24 21:33:00,
2013-04-24 17:38:00,85.3,68.3,30.05,NNW,347,1.2,1.2,57,0.00,CLR,,0.00,WeatherDisplay:10.37,2013-04-24 21:38:00,
2013-04-24 17:43:00,85.4,68.9,30.05,West,267,1.2,1.2,58,0.00,CLR,,0.00,WeatherDisplay:10.37,2013-04-24 21:43:00,
2013-04-24 17:49:00,84.7,67.8,30.05,West,259,2.3,2.3,57,0.00,CLR,,0.00,WeatherDisplay:10.37,2013-04-24 21:49:00,
2013-04-24 17:54:00,84.8,67.9,30.05,ESE,122,1.2,1.2,57,0.00,CLR,,0.00,WeatherDisplay:10.37,2013-04-24 21:54:00,
2013-04-24 17:59:00,85.5,68.5,30.05,WNW,290,1.2,1.2,57,0.00,CLR,,0.00,WeatherDisplay:10.37,2013-04-24 21:59:00,
2013-04-24 18:04:00,84.9,67.5,30.05,NW,313,3.5,3.5,56,0.00,CLR,,0.00,WeatherDisplay:10.37,2013-04-24 22:04:00,
2013-04-24 18:09:00,83.9,68.0,30.05,NNW,340,2.3,2.3,59,0.00,CLR,,0.00,WeatherDisplay:10.37,2013-04-24 22:09:00,
2013-04-24 18:14:00,83.7,67.8,30.05,NW,309,1.2,1.2,59,0.00,CLR,,0.00,WeatherDisplay:10.37,2013-04-24 22:14:00,
2013-04-24 18:19:00,83.6,67.8,30.06,West,276,3.5,3.5,59,0.00,CLR,,0.00,WeatherDisplay:10.37,2013-04-24 22:19:00,
2013-04-24 18:25:00,83.7,67.8,30.06,SW,225,3.5,3.5,59,0.00,CLR,,0.00,WeatherDisplay:10.37,2013-04-24 22:25:00,
2013-04-24 18:30:00,83.7,67.8,30.06,WSW,252,1.2,1.2,59,0.00,CLR,,0.00,WeatherDisplay:10.37,2013-04-24 22:30:00,
2013-04-24 18:35:00,83.4,67.6,30.05,West,281,5.8,5.8,59,0.00,CLR,,0.00,WeatherDisplay:10.37,2013-04-24 22:35:00,
2013-04-24 18:40:00,82.4,67.6,30.06,WSW,253,2.3,2.3,61,0.00,CLR,,0.00,WeatherDisplay:10.37,2013-04-24 22:40:00,
2013-04-24 18:45:00,81.9,67.6,30.06,WNW,299,3.5,3.5,62,0.00,CLR,,0.00,WeatherDisplay:10.37,2013-04-24 22:45:00,
2013-04-24 18:51:00,81.6,67.3,30.06,NE,47,1.2,1.2,62,0.00,CLR,,0.00,WeatherDisplay:10.37,2013-04-24 22:51:00,
2013-04-24 18:56:00,81.4,67.6,30.06,WNW,284,3.5,3.5,63,0.00,CLR,,0.00,WeatherDisplay:10.37,2013-04-24 22:56:00,
2013-04-24 19:01:00,81.0,67.7,30.07,WNW,302,3.5,3.5,64,0.00,CLR,,0.00,WeatherDisplay:10.37,2013-04-24 23:01:00,
2013-04-24 19:06:00,80.6,67.7,30.07,SW,236,2.3,2.3,65,0.00,CLR,,0.00,WeatherDisplay:10.37,2013-04-24 23:06:00,
2013-04-24 19:11:00,80.2,67.8,30.07,WNW,288,2.3,2.3,66,0.00,CLR,,0.00,WeatherDisplay:10.37,2013-04-24 23:11:00,
2013-04-24 19:16:00,79.7,67.8,30.07,West,281,3.5,3.5,67,0.00,CLR,,0.00,WeatherDisplay:10.37,2013-04-24 23:16:00,
2013-04-24 19:21:00,79.3,67.4,30.07,West,271,2.3,2.3,67,0.00,CLR,,0.00,WeatherDisplay:10.37,2013-04-24 23:21:00,
2013-04-24 19:26:00,79.0,67.5,30.07,NW,304,2.3,2.3,68,0.00,CLR,,0.00,WeatherDisplay:10.37,2013-04-24 23:26:00,
2013-04-24 19:32:00,78.6,67.6,30.07,WNW,302,3.5,3.5,69,0.00,CLR,,0.00,WeatherDisplay:10.37,2013-04-24 23:32:00,
2013-04-24 19:37:00,78.3,67.7,30.07,WNW,287,2.3,2.3,70,0.00,CLR,,0.00,WeatherDisplay:10.37,2013-04-24 23:37:00,
2013-04-24 19:42:00,77.9,67.7,30.07,West,275,3.5,3.5,71,0.00,CLR,,0.00,WeatherDisplay:10.37,2013-04-24 23:42:00,
2013-04-24 19:47:00,77.6,67.9,30.07,WNW,289,2.3,2.3,72,0.00,CLR,,0.00,WeatherDisplay:10.37,2013-04-24 23:47:00,
2013-04-24 19:52:00,77.3,67.6,30.07,WNW,291,0.0,0.1,72,0.00,CLR,,0.00,WeatherDisplay:10.37,2013-04-24 23:52:00,
2013-04-24 19:57:00,77.0,67.7,30.07,WNW,297,2.3,2.3,73,0.00,CLR,,0.00,WeatherDisplay:10.37,2013-04-24 23:57:00,
2013-04-24 20:02:00,76.7,67.4,30.08,NW,312,2.3,2.3,73,0.00,CLR,,0.00,WeatherDisplay:10.37,2013-04-25 00:02:00,
2013-04-24 20:08:00,76.5,67.6,30.08,WNW,300,2.3,2.3,74,0.00,CLR,,0.00,WeatherDisplay:10.37,2013-04-25 00:08:00,
2013-04-24 20:13:00,76.3,67.4,30.08,NW,304,3.5,3.5,74,0.00,CLR,,0.00,WeatherDisplay:10.37,2013-04-25 00:13:00,
2013-04-24 20:18:00,76.1,67.2,30.08,WNW,302,1.2,0.0,74,0.00,CLR,,0.00,WeatherDisplay:10.37,2013-04-25 00:18:00,
2013-04-24 20:23:00,75.8,67.3,30.08,WNW,302,1.2,1.2,75,0.00,CLR,,0.00,WeatherDisplay:10.37,2013-04-25 00:23:00,
2013-04-24 20:28:00,75.5,67.0,30.08,WNW,302,2.3,2.3,75,0.00,CLR,,0.00,WeatherDisplay:10.37,2013-04-25 00:28:00,
2013-04-24 20:33:00,75.4,66.9,30.08,WNW,300,3.5,3.5,75,0.00,CLR,,0.00,WeatherDisplay:10.37,2013-04-25 00:33:00,
2013-04-24 20:38:00,75.4,66.9,30.08,WNW,293,1.2,1.2,75,0.00,CLR,,0.00,WeatherDisplay:10.37,2013-04-25 00:38:00,
2013-04-24 20:43:00,75.3,66.8,30.09,NW,310,2.0,2.0,75,0.00,CLR,,0.00,WeatherDisplay:10.37,2013-04-25 00:43:00,
2013-04-24 20:48:00,75.5,66.6,30.09,NW,319,1.2,1.2,74,0.00,CLR,,0.00,WeatherDisplay:10.37,2013-04-25 00:48:00,
2013-04-24 20:53:00,75.4,66.5,30.09,NW,322,2.3,2.3,74,0.00,CLR,,0.00,WeatherDisplay:10.37,2013-04-25 00:53:00,
2013-04-24 20:58:00,75.4,66.1,30.09,WNW,297,2.3,2.3,73,0.00,CLR,,0.00,WeatherDisplay:10.37,2013-04-25 00:58:00,
2013-04-24 21:04:00,75.4,66.5,30.09,WNW,296,1.2,0.0,74,0.00,CLR,,0.00,WeatherDisplay:10.37,2013-04-25 01:04:00,
2013-04-24 21:09:00,75.2,66.3,30.09,WNW,297,1.2,1.2,74,0.00,CLR,,0.00,WeatherDisplay:10.37,2013-04-25 01:09:00,
2013-04-24 21:14:00,75.2,66.7,30.09,WNW,286,2.3,2.3,75,0.00,CLR,,0.00,WeatherDisplay:10.37,2013-04-25 01:14:00,
2013-04-24 21:19:00,75.0,66.5,30.10,NW,313,1.2,0.0,75,0.00,CLR,,0.00,WeatherDisplay:10.37,2013-04-25 01:19:00,
2013-04-24 21:24:00,74.8,66.7,30.10,NNE,23,2.0,2.0,76,0.00,CLR,,0.00,WeatherDisplay:10.37,2013-04-25 01:24:00,
2013-04-24 21:29:00,75.1,67.0,30.10,West,277,3.5,3.5,76,0.00,CLR,,0.00,WeatherDisplay:10.37,2013-04-25 01:29:00,
2013-04-24 21:35:00,74.8,66.7,30.10,WNW,292,3.5,3.5,76,0.00,CLR,,0.00,WeatherDisplay:10.37,2013-04-25 01:35:00,
2013-04-24 21:40:00,74.7,67.0,30.11,NNW,334,3.5,3.5,77,0.00,CLR,,0.00,WeatherDisplay:10.37,2013-04-25 01:40:00,
2013-04-24 21:45:00,74.8,67.1,30.11,WNW,297,3.5,3.5,77,0.00,CLR,,0.00,WeatherDisplay:10.37,2013-04-25 01:45:00,
2013-04-24 21:50:00,74.7,67.0,30.11,NW,319,2.3,2.3,77,0.00,CLR,,0.00,WeatherDisplay:10.37,2013-04-25 01:50:00,
2013-04-24 21:55:00,74.6,66.9,30.11,NW,311,1.2,1.2,77,0.00,CLR,,0.00,WeatherDisplay:10.37,2013-04-25 01:55:00,
2013-04-24 22:00:00,74.6,66.9,30.11,NNW,332,2.3,2.3,77,0.00,CLR,,0.00,WeatherDisplay:10.37,2013-04-25 02:00:00,
2013-04-24 22:05:00,74.5,67.2,30.12,NW,314,3.5,3.5,78,0.00,CLR,,0.00,WeatherDisplay:10.37,2013-04-25 02:05:00,
2013-04-24 22:11:00,74.8,67.5,30.12,NW,314,3.5,3.5,78,0.00,CLR,,0.00,WeatherDisplay:10.37,2013-04-25 02:11:00,
2013-04-24 22:16:00,74.7,67.8,30.12,NNW,342,3.5,3.5,79,0.00,CLR,,0.00,WeatherDisplay:10.37,2013-04-25 02:16:00,
2013-04-24 22:21:00,74.7,67.8,30.12,North,352,3.5,3.5,79,0.00,CLR,,0.00,WeatherDisplay:10.37,2013-04-25 02:21:00,
2013-04-24 22:26:00,74.6,68.0,30.12,WNW,288,3.5,3.5,80,0.00,CLR,,0.00,WeatherDisplay:10.37,2013-04-25 02:26:00,
2013-04-24 22:31:00,74.4,68.2,30.12,NW,305,3.5,3.5,81,0.00,CLR,,0.00,WeatherDisplay:10.37,2013-04-25 02:31:00,
2013-04-24 22:36:00,74.2,68.0,30.12,NNW,334,3.5,3.5,81,0.00,CLR,,0.00,WeatherDisplay:10.37,2013-04-25 02:36:00,
2013-04-24 22:42:00,74.1,67.9,30.12,NW,325,4.6,4.6,81,0.00,CLR,,0.00,WeatherDisplay:10.37,2013-04-25 02:42:00,
2013-04-24 22:47:00,74.0,67.8,30.12,NNW,330,3.5,3.5,81,0.00,CLR,,0.00,WeatherDisplay:10.37,2013-04-25 02:47:00,
2013-04-24 22:52:00,73.9,68.1,30.12,NNW,348,2.3,2.3,82,0.00,CLR,,0.00,WeatherDisplay:10.37,2013-04-25 02:52:00,
2013-04-24 22:57:00,73.9,68.1,30.12,North,349,4.0,4.0,82,0.00,CLR,,0.00,WeatherDisplay:10.37,2013-04-25 02:57:00,
2013-04-24 23:02:00,74.0,68.2,30.12,NNW,335,3.5,3.5,82,0.00,CLR,,0.00,WeatherDisplay:10.37,2013-04-25 03:02:00,
2013-04-24 23:07:00,74.0,67.8,30.12,NNW,330,4.6,4.6,81,0.00,CLR,,0.00,WeatherDisplay:10.37,2013-04-25 03:07:00,
2013-04-24 23:12:00,74.1,67.5,30.12,NNW,328,4.6,4.6,80,0.00,CLR,,0.00,WeatherDisplay:10.37,2013-04-25 03:12:00,
2013-04-24 23:17:00,74.4,67.1,30.12,NE,34,4.0,4.0,78,0.00,CLR,,0.00,WeatherDisplay:10.37,2013-04-25 03:17:00,
2013-04-24 23:23:00,74.6,66.9,30.12,NE,51,6.9,6.9,77,0.00,CLR,,0.00,WeatherDisplay:10.37,2013-04-25 03:23:00,
2013-04-24 23:28:00,74.4,66.7,30.12,ENE,61,4.0,4.0,77,0.00,CLR,,0.00,WeatherDisplay:10.37,2013-04-25 03:28:00,
2013-04-24 23:33:00,74.2,66.9,30.12,NE,54,6.9,6.9,78,0.00,CLR,,0.00,WeatherDisplay:10.37,2013-04-25 03:33:00,
2013-04-24 23:38:00,73.9,66.6,30.12,ENE,58,3.5,3.5,78,0.00,CLR,,0.00,WeatherDisplay:10.37,2013-04-25 03:38:00,
2013-04-24 23:43:00,73.7,66.8,30.12,ENE,63,4.6,4.6,79,0.00,CLR,,0.00,WeatherDisplay:10.37,2013-04-25 03:43:00,
2013-04-24 23:48:00,73.5,66.6,30.12,NE,56,8.0,8.0,79,0.00,CLR,,0.00,WeatherDisplay:10.37,2013-04-25 03:48:00,
2013-04-24 23:53:00,73.3,66.8,30.12,ENE,60,5.8,5.8,80,0.00,CLR,,0.00,WeatherDisplay:10.37,2013-04-25 03:53:00,
2013-04-24 23:58:00,73.1,66.9,30.13,ENE,77,5.8,5.8,81,0.00,CLR,,0.00,WeatherDisplay:10.37,2013-04-25 03:58:00,